Year,Month,Day,Hour,Minute,Value (Times are PST for temperature in C)
2009,08,11,00,00,14.20
2009,08,11,00,01,14.20
2009,08,11,00,02,14.20
2009,08,11,00,03,14.20
2009,08,11,00,04,14.20
2009,08,11,00,05,14.20
2009,08,11,00,06,14.20
2009,08,11,00,07,14.20
2009,08,11,00,08,14.20
2009,08,11,00,09,14.20
2009,08,11,00,10,14.20
2009,08,11,00,11,14.20
2009,08,11,00,12,14.20
2009,08,11,00,13,14.20
2009,08,11,00,14,14.30
2009,08,11,00,15,14.30
2009,08,11,00,16,14.30
2009,08,11,00,17,14.30
2009,08,11,00,18,14.30
2009,08,11,00,19,14.30
2009,08,11,00,20,14.30
2009,08,11,00,21,14.30
2009,08,11,00,22,14.30
2009,08,11,00,23,14.30
2009,08,11,00,24,14.30
2009,08,11,00,25,14.30
2009,08,11,00,26,14.30
2009,08,11,00,27,14.30
2009,08,11,00,28,14.30
2009,08,11,00,29,14.30
2009,08,11,00,30,14.30
2009,08,11,00,31,14.30
2009,08,11,00,32,14.30
2009,08,11,00,33,14.30
2009,08,11,00,34,14.30
2009,08,11,00,35,14.30
2009,08,11,00,36,14.30
2009,08,11,00,37,14.30
2009,08,11,00,38,14.30
2009,08,11,00,39,14.30
2009,08,11,00,40,14.30
2009,08,11,00,41,14.30
2009,08,11,00,42,14.30
2009,08,11,00,43,14.30
2009,08,11,00,44,14.30
2009,08,11,00,45,14.30
2009,08,11,00,46,14.30
2009,08,11,00,47,14.30
2009,08,11,00,48,14.30
2009,08,11,00,49,14.20
2009,08,11,00,50,14.20
2009,08,11,00,51,14.20
2009,08,11,00,52,14.20
2009,08,11,00,53,14.20
2009,08,11,00,54,14.20
2009,08,11,00,55,14.20
2009,08,11,00,56,14.20
2009,08,11,00,57,14.20
2009,08,11,00,58,14.20
2009,08,11,00,59,14.20
2009,08,11,01,00,14.20
2009,08,11,01,01,14.20
2009,08,11,01,02,14.20
2009,08,11,01,03,14.10
2009,08,11,01,04,14.10
2009,08,11,01,05,14.10
2009,08,11,01,06,14.10
2009,08,11,01,07,14.10
2009,08,11,01,08,14.10
2009,08,11,01,09,14.10
2009,08,11,01,10,14.10
2009,08,11,01,11,14.10
2009,08,11,01,12,14.10
2009,08,11,01,13,14.10
2009,08,11,01,14,14.10
2009,08,11,01,15,14.10
2009,08,11,01,16,14.10
2009,08,11,01,17,14.10
2009,08,11,01,18,14.10
2009,08,11,01,19,14.10
2009,08,11,01,20,14.10
2009,08,11,01,21,14.10
2009,08,11,01,22,14.00
2009,08,11,01,23,14.00
2009,08,11,01,24,14.00
2009,08,11,01,25,14.00
2009,08,11,01,26,13.90
2009,08,11,01,27,13.90
2009,08,11,01,28,13.90
2009,08,11,01,29,13.90
2009,08,11,01,30,13.90
2009,08,11,01,31,13.90
2009,08,11,01,32,13.80
2009,08,11,01,33,13.80
2009,08,11,01,34,13.80
2009,08,11,01,35,13.80
2009,08,11,01,36,13.80
2009,08,11,01,37,13.80
2009,08,11,01,38,13.70
2009,08,11,01,39,13.70
2009,08,11,01,40,13.70
2009,08,11,01,41,13.70
2009,08,11,01,42,13.70
2009,08,11,01,43,13.70
2009,08,11,01,44,13.70
2009,08,11,01,45,13.70
2009,08,11,01,46,13.70
2009,08,11,01,47,13.60
2009,08,11,01,48,13.60
2009,08,11,01,49,13.60
2009,08,11,01,50,13.50
2009,08,11,01,51,13.50
2009,08,11,01,52,13.50
2009,08,11,01,53,13.40
2009,08,11,01,54,13.40
2009,08,11,01,55,13.40
2009,08,11,01,56,13.40
2009,08,11,01,57,13.40
2009,08,11,01,58,13.40
2009,08,11,01,59,13.30
2009,08,11,02,00,13.30
2009,08,11,02,01,13.30
2009,08,11,02,02,13.30
2009,08,11,02,03,13.30
2009,08,11,02,04,13.30
2009,08,11,02,05,13.30
2009,08,11,02,06,13.30
2009,08,11,02,07,13.30
2009,08,11,02,08,13.30
2009,08,11,02,09,13.30
2009,08,11,02,10,13.30
2009,08,11,02,11,13.30
2009,08,11,02,12,13.20
2009,08,11,02,13,13.20
2009,08,11,02,14,13.20
2009,08,11,02,15,13.20
2009,08,11,02,16,13.20
2009,08,11,02,17,13.10
2009,08,11,02,18,13.10
2009,08,11,02,19,13.10
2009,08,11,02,20,13.10
2009,08,11,02,21,13.10
2009,08,11,02,22,13.10
2009,08,11,02,23,13.00
2009,08,11,02,24,13.00
2009,08,11,02,25,13.00
2009,08,11,02,26,12.90
2009,08,11,02,27,12.90
2009,08,11,02,28,12.90
2009,08,11,02,29,12.90
2009,08,11,02,30,12.90
2009,08,11,02,31,12.90
2009,08,11,02,32,12.90
2009,08,11,02,33,12.90
2009,08,11,02,34,12.90
2009,08,11,02,35,12.80
2009,08,11,02,36,12.80
2009,08,11,02,37,12.80
2009,08,11,02,38,12.70
2009,08,11,02,39,12.70
2009,08,11,02,40,12.70
2009,08,11,02,41,12.70
2009,08,11,02,42,12.60
2009,08,11,02,43,12.60
2009,08,11,02,44,12.50
2009,08,11,02,45,12.50
2009,08,11,02,46,12.40
2009,08,11,02,47,12.40
2009,08,11,02,48,12.40
2009,08,11,02,49,12.40
2009,08,11,02,50,12.40
2009,08,11,02,51,12.40
2009,08,11,02,52,12.40
2009,08,11,02,53,12.30
2009,08,11,02,54,12.30
2009,08,11,02,55,12.30
2009,08,11,02,56,12.30
2009,08,11,02,57,12.30
2009,08,11,02,58,12.30
2009,08,11,02,59,12.30
2009,08,11,03,00,12.30
2009,08,11,03,01,12.30
2009,08,11,03,02,12.30
2009,08,11,03,03,12.30
2009,08,11,03,04,12.20
2009,08,11,03,05,12.20
2009,08,11,03,06,12.20
2009,08,11,03,07,12.20
2009,08,11,03,08,12.10
2009,08,11,03,09,12.10
2009,08,11,03,10,12.10
2009,08,11,03,11,12.10
2009,08,11,03,12,12.10
2009,08,11,03,13,12.10
2009,08,11,03,14,12.10
2009,08,11,03,15,12.10
2009,08,11,03,16,12.10
2009,08,11,03,17,12.10
2009,08,11,03,18,12.10
2009,08,11,03,19,12.10
2009,08,11,03,20,12.10
2009,08,11,03,21,12.10
2009,08,11,03,22,12.10
2009,08,11,03,23,12.10
2009,08,11,03,24,12.00
2009,08,11,03,25,12.00
2009,08,11,03,26,12.00
2009,08,11,03,27,12.00
2009,08,11,03,28,12.00
2009,08,11,03,29,12.00
2009,08,11,03,30,11.90
2009,08,11,03,31,11.90
2009,08,11,03,32,11.90
2009,08,11,03,33,11.90
2009,08,11,03,34,11.90
2009,08,11,03,35,11.80
2009,08,11,03,36,11.80
2009,08,11,03,37,11.80
2009,08,11,03,38,11.80
2009,08,11,03,39,11.80
2009,08,11,03,40,11.80
2009,08,11,03,41,11.80
2009,08,11,03,42,11.80
2009,08,11,03,43,11.80
2009,08,11,03,44,11.80
2009,08,11,03,45,11.80
2009,08,11,03,46,11.80
2009,08,11,03,47,11.70
2009,08,11,03,48,11.70
2009,08,11,03,49,11.70
2009,08,11,03,50,11.70
2009,08,11,03,51,11.70
2009,08,11,03,52,11.70
2009,08,11,03,53,11.60
2009,08,11,03,54,11.60
2009,08,11,03,55,11.60
2009,08,11,03,56,11.60
2009,08,11,03,57,11.60
2009,08,11,03,58,11.60
2009,08,11,03,59,11.50
2009,08,11,04,00,11.60
2009,08,11,04,01,11.50
2009,08,11,04,02,11.50
2009,08,11,04,03,11.50
2009,08,11,04,04,11.50
2009,08,11,04,05,11.60
2009,08,11,04,06,11.60
2009,08,11,04,07,11.60
2009,08,11,04,08,11.60
2009,08,11,04,09,11.60
2009,08,11,04,10,11.50
2009,08,11,04,11,11.50
2009,08,11,04,12,11.50
2009,08,11,04,13,11.40
2009,08,11,04,14,11.40
2009,08,11,04,15,11.40
2009,08,11,04,16,11.50
2009,08,11,04,17,11.60
2009,08,11,04,18,11.60
2009,08,11,04,19,11.70
2009,08,11,04,20,11.70
2009,08,11,04,21,11.70
2009,08,11,04,22,11.70
2009,08,11,04,23,11.70
2009,08,11,04,24,11.60
2009,08,11,04,25,11.60
2009,08,11,04,26,11.60
2009,08,11,04,27,11.60
2009,08,11,04,28,11.50
2009,08,11,04,29,11.50
2009,08,11,04,30,11.50
2009,08,11,04,31,11.40
2009,08,11,04,32,11.40
2009,08,11,04,33,11.40
2009,08,11,04,34,11.40
2009,08,11,04,35,11.40
2009,08,11,04,36,11.30
2009,08,11,04,37,11.30
2009,08,11,04,38,11.30
2009,08,11,04,39,11.30
2009,08,11,04,40,11.40
2009,08,11,04,41,11.40
2009,08,11,04,42,11.40
2009,08,11,04,43,11.40
2009,08,11,04,44,11.40
2009,08,11,04,45,11.40
2009,08,11,04,46,11.40
2009,08,11,04,47,11.40
2009,08,11,04,48,11.40
2009,08,11,04,49,11.40
2009,08,11,04,50,11.40
2009,08,11,04,51,11.40
2009,08,11,04,52,11.40
2009,08,11,04,53,11.30
2009,08,11,04,54,11.30
2009,08,11,04,55,11.20
2009,08,11,04,56,11.20
2009,08,11,04,57,11.20
2009,08,11,04,58,11.10
2009,08,11,04,59,11.10
2009,08,11,05,00,11.10
2009,08,11,05,01,11.10
2009,08,11,05,02,11.10
2009,08,11,05,03,11.10
2009,08,11,05,04,11.10
2009,08,11,05,05,11.10
2009,08,11,05,06,11.00
2009,08,11,05,07,11.00
2009,08,11,05,08,11.00
2009,08,11,05,09,10.90
2009,08,11,05,10,10.90
2009,08,11,05,11,10.90
2009,08,11,05,12,10.90
2009,08,11,05,13,10.90
2009,08,11,05,14,10.90
2009,08,11,05,15,10.80
2009,08,11,05,16,10.80
2009,08,11,05,17,10.80
2009,08,11,05,18,10.80
2009,08,11,05,19,10.80
2009,08,11,05,20,10.70
2009,08,11,05,21,10.70
2009,08,11,05,22,10.70
2009,08,11,05,23,10.70
2009,08,11,05,24,10.70
2009,08,11,05,25,10.70
2009,08,11,05,26,10.70
2009,08,11,05,27,10.70
2009,08,11,05,28,10.70
2009,08,11,05,29,10.60
2009,08,11,05,30,10.60
2009,08,11,05,31,10.60
2009,08,11,05,32,10.60
2009,08,11,05,33,10.60
2009,08,11,05,34,10.60
2009,08,11,05,35,10.60
2009,08,11,05,36,10.60
2009,08,11,05,37,10.60
2009,08,11,05,38,10.50
2009,08,11,05,39,10.50
2009,08,11,05,40,10.50
2009,08,11,05,41,10.50
2009,08,11,05,42,10.50
2009,08,11,05,43,10.40
2009,08,11,05,44,10.40
2009,08,11,05,45,10.40
2009,08,11,05,46,10.40
2009,08,11,05,47,10.40
2009,08,11,05,48,10.40
2009,08,11,05,49,10.40
2009,08,11,05,50,10.30
2009,08,11,05,51,10.30
2009,08,11,05,52,10.30
2009,08,11,05,53,10.30
2009,08,11,05,54,10.30
2009,08,11,05,55,10.30
2009,08,11,05,56,10.20
2009,08,11,05,57,10.20
2009,08,11,05,58,10.20
2009,08,11,05,59,10.20
2009,08,11,06,00,10.20
2009,08,11,06,01,10.10
2009,08,11,06,02,10.10
2009,08,11,06,03,10.10
2009,08,11,06,04,10.10
2009,08,11,06,05,10.10
2009,08,11,06,06,10.10
2009,08,11,06,07,10.00
2009,08,11,06,08,10.00
2009,08,11,06,09,10.00
2009,08,11,06,10,10.00
2009,08,11,06,11,10.00
2009,08,11,06,12,10.00
2009,08,11,06,13,9.90
2009,08,11,06,14,9.90
2009,08,11,06,15,9.90
2009,08,11,06,16,9.90
2009,08,11,06,17,9.90
2009,08,11,06,18,9.90
2009,08,11,06,19,9.90
2009,08,11,06,20,9.90
2009,08,11,06,21,9.90
2009,08,11,06,22,10.00
2009,08,11,06,23,10.00
2009,08,11,06,24,10.00
2009,08,11,06,25,10.00
2009,08,11,06,26,10.00
2009,08,11,06,27,10.00
2009,08,11,06,28,10.10
2009,08,11,06,29,10.10
2009,08,11,06,30,10.10
2009,08,11,06,31,10.10
2009,08,11,06,32,10.10
2009,08,11,06,33,10.10
2009,08,11,06,34,10.10
2009,08,11,06,35,10.00
2009,08,11,06,36,10.00
2009,08,11,06,37,10.00
2009,08,11,06,38,10.00
2009,08,11,06,39,10.00
2009,08,11,06,40,10.10
2009,08,11,06,41,10.10
2009,08,11,06,42,10.10
2009,08,11,06,43,10.10
2009,08,11,06,44,10.10
2009,08,11,06,45,10.10
2009,08,11,06,46,10.20
2009,08,11,06,47,10.20
2009,08,11,06,48,10.20
2009,08,11,06,49,10.20
2009,08,11,06,50,10.30
2009,08,11,06,51,10.30
2009,08,11,06,52,10.30
2009,08,11,06,53,10.30
2009,08,11,06,54,10.30
2009,08,11,06,55,10.30
2009,08,11,06,56,10.30
2009,08,11,06,57,10.40
2009,08,11,06,58,10.40
2009,08,11,06,59,10.40
2009,08,11,07,00,10.40
2009,08,11,07,01,10.50
2009,08,11,07,02,10.50
2009,08,11,07,03,10.60
2009,08,11,07,04,10.60
2009,08,11,07,05,10.70
2009,08,11,07,06,10.70
2009,08,11,07,07,10.70
2009,08,11,07,08,10.80
2009,08,11,07,09,10.80
2009,08,11,07,10,10.90
2009,08,11,07,11,10.90
2009,08,11,07,12,11.00
2009,08,11,07,13,11.00
2009,08,11,07,14,11.10
2009,08,11,07,15,11.20
2009,08,11,07,16,11.20
2009,08,11,07,17,11.20
2009,08,11,07,18,11.30
2009,08,11,07,19,11.30
2009,08,11,07,20,11.40
2009,08,11,07,21,11.40
2009,08,11,07,22,11.50
2009,08,11,07,23,11.50
2009,08,11,07,24,11.60
2009,08,11,07,25,11.60
2009,08,11,07,26,11.70
2009,08,11,07,27,11.70
2009,08,11,07,28,11.80
2009,08,11,07,29,11.80
2009,08,11,07,30,11.90
2009,08,11,07,31,11.90
2009,08,11,07,32,12.00
2009,08,11,07,33,12.00
2009,08,11,07,34,12.10
2009,08,11,07,35,12.10
2009,08,11,07,36,12.20
2009,08,11,07,37,12.20
2009,08,11,07,38,12.30
2009,08,11,07,39,12.40
2009,08,11,07,40,12.50
2009,08,11,07,41,12.50
2009,08,11,07,42,12.60
2009,08,11,07,43,12.70
2009,08,11,07,44,12.80
2009,08,11,07,45,12.80
2009,08,11,07,46,12.90
2009,08,11,07,47,13.00
2009,08,11,07,48,13.10
2009,08,11,07,49,13.20
2009,08,11,07,50,13.30
2009,08,11,07,51,13.40
2009,08,11,07,52,13.50
2009,08,11,07,53,13.60
2009,08,11,07,54,13.70
2009,08,11,07,55,13.90
2009,08,11,07,56,14.00
2009,08,11,07,57,14.10
2009,08,11,07,58,14.20
2009,08,11,07,59,14.30
2009,08,11,08,00,14.40
2009,08,11,08,01,14.50
2009,08,11,08,02,14.60
2009,08,11,08,03,14.70
2009,08,11,08,04,14.80
2009,08,11,08,05,15.00
2009,08,11,08,06,15.00
2009,08,11,08,07,15.10
2009,08,11,08,08,15.30
2009,08,11,08,09,15.40
2009,08,11,08,10,15.60
2009,08,11,08,11,15.80
2009,08,11,08,12,15.90
2009,08,11,08,13,16.00
2009,08,11,08,14,16.10
2009,08,11,08,15,16.10
2009,08,11,08,16,16.10
2009,08,11,08,17,16.20
2009,08,11,08,18,16.20
2009,08,11,08,19,16.30
2009,08,11,08,20,16.40
2009,08,11,08,21,16.60
2009,08,11,08,22,16.70
2009,08,11,08,23,16.80
2009,08,11,08,24,16.90
2009,08,11,08,25,17.00
2009,08,11,08,26,17.10
2009,08,11,08,27,17.20
2009,08,11,08,28,17.30
2009,08,11,08,29,17.40
2009,08,11,08,30,17.60
2009,08,11,08,31,17.70
2009,08,11,08,32,17.80
2009,08,11,08,33,17.90
2009,08,11,08,34,17.90
2009,08,11,08,35,18.00
2009,08,11,08,36,18.00
2009,08,11,08,37,18.10
2009,08,11,08,38,18.10
2009,08,11,08,39,18.20
2009,08,11,08,40,18.20
2009,08,11,08,41,18.10
2009,08,11,08,42,18.10
2009,08,11,08,43,18.00
2009,08,11,08,44,17.80
2009,08,11,08,45,17.60
2009,08,11,08,46,17.40
2009,08,11,08,47,17.20
2009,08,11,08,48,17.10
2009,08,11,08,49,17.00
2009,08,11,08,50,16.90
2009,08,11,08,51,16.90
2009,08,11,08,52,16.90
2009,08,11,08,53,16.90
2009,08,11,08,54,17.00
2009,08,11,08,55,17.10
2009,08,11,08,56,17.20
2009,08,11,08,57,17.30
2009,08,11,08,58,17.40
2009,08,11,08,59,17.50
2009,08,11,09,00,17.70
2009,08,11,09,01,17.90
2009,08,11,09,02,18.10
2009,08,11,09,03,18.30
2009,08,11,09,04,18.40
2009,08,11,09,05,18.50
2009,08,11,09,06,18.60
2009,08,11,09,07,18.60
2009,08,11,09,08,18.60
2009,08,11,09,09,18.50
2009,08,11,09,10,18.40
2009,08,11,09,11,18.30
2009,08,11,09,12,18.20
2009,08,11,09,13,18.00
2009,08,11,09,14,17.80
2009,08,11,09,15,17.60
2009,08,11,09,16,17.50
2009,08,11,09,17,17.40
2009,08,11,09,18,17.30
2009,08,11,09,19,17.20
2009,08,11,09,20,17.10
2009,08,11,09,21,17.00
2009,08,11,09,22,17.00
2009,08,11,09,23,16.90
2009,08,11,09,24,16.80
2009,08,11,09,25,16.80
2009,08,11,09,26,16.80
2009,08,11,09,27,16.80
2009,08,11,09,28,16.80
2009,08,11,09,29,16.70
2009,08,11,09,30,16.70
2009,08,11,09,31,16.60
2009,08,11,09,32,16.50
2009,08,11,09,33,16.50
2009,08,11,09,34,16.50
2009,08,11,09,35,16.50
2009,08,11,09,36,16.50
2009,08,11,09,37,16.40
2009,08,11,09,38,16.40
2009,08,11,09,39,16.40
2009,08,11,09,40,16.40
2009,08,11,09,41,16.40
2009,08,11,09,42,16.40
2009,08,11,09,43,16.30
2009,08,11,09,44,16.30
2009,08,11,09,45,16.20
2009,08,11,09,46,16.20
2009,08,11,09,47,16.20
2009,08,11,09,48,16.20
2009,08,11,09,49,16.10
2009,08,11,09,50,16.20
2009,08,11,09,51,16.10
2009,08,11,09,52,16.10
2009,08,11,09,53,16.10
2009,08,11,09,54,16.20
2009,08,11,09,55,16.20
2009,08,11,09,56,16.20
2009,08,11,09,57,16.20
2009,08,11,09,58,16.20
2009,08,11,09,59,16.30
2009,08,11,10,00,16.30
2009,08,11,10,01,16.40
2009,08,11,10,02,16.50
2009,08,11,10,03,16.60
2009,08,11,10,04,16.70
2009,08,11,10,05,16.80
2009,08,11,10,06,16.90
2009,08,11,10,07,17.00
2009,08,11,10,08,17.10
2009,08,11,10,09,17.20
2009,08,11,10,10,17.20
2009,08,11,10,11,17.30
2009,08,11,10,12,17.30
2009,08,11,10,13,17.30
2009,08,11,10,14,17.20
2009,08,11,10,15,17.10
2009,08,11,10,16,17.00
2009,08,11,10,17,16.90
2009,08,11,10,18,16.80
2009,08,11,10,19,16.80
2009,08,11,10,20,16.80
2009,08,11,10,21,16.70
2009,08,11,10,22,16.70
2009,08,11,10,23,16.70
2009,08,11,10,24,16.70
2009,08,11,10,25,16.70
2009,08,11,10,26,16.70
2009,08,11,10,27,16.80
2009,08,11,10,28,16.90
2009,08,11,10,29,17.00
2009,08,11,10,30,17.10
2009,08,11,10,31,17.20
2009,08,11,10,32,17.40
2009,08,11,10,33,17.50
2009,08,11,10,34,17.70
2009,08,11,10,35,17.80
2009,08,11,10,36,17.80
2009,08,11,10,37,17.90
2009,08,11,10,38,17.90
2009,08,11,10,39,17.90
2009,08,11,10,40,18.00
2009,08,11,10,41,18.10
2009,08,11,10,42,18.20
2009,08,11,10,43,18.20
2009,08,11,10,44,18.20
2009,08,11,10,45,18.30
2009,08,11,10,46,18.30
2009,08,11,10,47,18.40
2009,08,11,10,48,18.30
2009,08,11,10,49,18.30
2009,08,11,10,50,18.30
2009,08,11,10,51,18.30
2009,08,11,10,52,18.20
2009,08,11,10,53,18.00
2009,08,11,10,54,17.90
2009,08,11,10,55,17.80
2009,08,11,10,56,17.70
2009,08,11,10,57,17.60
2009,08,11,10,58,17.50
2009,08,11,10,59,17.40
2009,08,11,11,00,17.30
2009,08,11,11,01,17.30
2009,08,11,11,02,17.20
2009,08,11,11,03,17.20
2009,08,11,11,04,17.30
2009,08,11,11,05,17.30
2009,08,11,11,06,17.40
2009,08,11,11,07,17.50
2009,08,11,11,08,17.50
2009,08,11,11,09,17.60
2009,08,11,11,10,17.60
2009,08,11,11,11,17.70
2009,08,11,11,12,17.90
2009,08,11,11,13,18.00
2009,08,11,11,14,18.00
2009,08,11,11,15,18.10
2009,08,11,11,16,18.10
2009,08,11,11,17,18.20
2009,08,11,11,18,18.20
2009,08,11,11,19,18.30
2009,08,11,11,20,18.30
2009,08,11,11,21,18.30
2009,08,11,11,22,18.40
2009,08,11,11,23,18.50
2009,08,11,11,24,18.60
2009,08,11,11,25,18.60
2009,08,11,11,26,18.60
2009,08,11,11,27,18.60
2009,08,11,11,28,18.60
2009,08,11,11,29,18.70
2009,08,11,11,30,18.70
2009,08,11,11,31,18.80
2009,08,11,11,32,18.90
2009,08,11,11,33,18.90
2009,08,11,11,34,18.90
2009,08,11,11,35,18.90
2009,08,11,11,36,18.90
2009,08,11,11,37,19.00
2009,08,11,11,38,19.10
2009,08,11,11,39,19.20
2009,08,11,11,40,19.20
2009,08,11,11,41,19.20
2009,08,11,11,42,19.20
2009,08,11,11,43,19.10
2009,08,11,11,44,19.10
2009,08,11,11,45,19.20
2009,08,11,11,46,19.30
2009,08,11,11,47,19.30
2009,08,11,11,48,19.40
2009,08,11,11,49,19.50
2009,08,11,11,50,19.60
2009,08,11,11,51,19.60
2009,08,11,11,52,19.60
2009,08,11,11,53,19.70
2009,08,11,11,54,19.70
2009,08,11,11,55,19.70
2009,08,11,11,56,19.60
2009,08,11,11,57,19.70
2009,08,11,11,58,19.70
2009,08,11,11,59,19.80
2009,08,11,12,00,19.80
2009,08,11,12,01,19.90
2009,08,11,12,02,19.90
2009,08,11,12,03,19.90
2009,08,11,12,04,19.80
2009,08,11,12,05,19.80
2009,08,11,12,06,19.80
2009,08,11,12,07,19.80
2009,08,11,12,08,19.70
2009,08,11,12,09,19.60
2009,08,11,12,10,19.60
2009,08,11,12,11,19.50
2009,08,11,12,12,19.50
2009,08,11,12,13,19.40
2009,08,11,12,14,19.20
2009,08,11,12,15,19.10
2009,08,11,12,16,18.90
2009,08,11,12,17,18.80
2009,08,11,12,18,18.70
2009,08,11,12,19,18.60
2009,08,11,12,20,18.50
2009,08,11,12,21,18.30
2009,08,11,12,22,18.30
2009,08,11,12,23,18.20
2009,08,11,12,24,18.20
2009,08,11,12,25,18.20
2009,08,11,12,26,18.20
2009,08,11,12,27,18.30
2009,08,11,12,28,18.30
2009,08,11,12,29,18.40
2009,08,11,12,30,18.40
2009,08,11,12,31,18.50
2009,08,11,12,32,18.50
2009,08,11,12,33,18.60
2009,08,11,12,34,18.70
2009,08,11,12,35,18.90
2009,08,11,12,36,19.10
2009,08,11,12,37,19.30
2009,08,11,12,38,19.50
2009,08,11,12,39,19.70
2009,08,11,12,40,19.80
2009,08,11,12,41,19.90
2009,08,11,12,42,19.90
2009,08,11,12,43,20.00
2009,08,11,12,44,19.90
2009,08,11,12,45,19.90
2009,08,11,12,46,19.80
2009,08,11,12,47,19.70
2009,08,11,12,48,19.60
2009,08,11,12,49,19.60
2009,08,11,12,50,19.70
2009,08,11,12,51,19.70
2009,08,11,12,52,19.70
2009,08,11,12,53,19.80
2009,08,11,12,54,19.80
2009,08,11,12,55,19.80
2009,08,11,12,56,19.80
2009,08,11,12,57,19.80
2009,08,11,12,58,19.80
2009,08,11,12,59,19.80
2009,08,11,13,00,19.80
2009,08,11,13,01,19.80
2009,08,11,13,02,19.70
2009,08,11,13,03,19.70
2009,08,11,13,04,19.60
2009,08,11,13,05,19.60
2009,08,11,13,06,19.60
2009,08,11,13,07,19.60
2009,08,11,13,08,19.60
2009,08,11,13,09,19.70
2009,08,11,13,10,19.60
2009,08,11,13,11,19.60
2009,08,11,13,12,19.50
2009,08,11,13,13,19.40
2009,08,11,13,14,19.30
2009,08,11,13,15,19.30
2009,08,11,13,16,19.30
2009,08,11,13,17,19.30
2009,08,11,13,18,19.30
2009,08,11,13,19,19.30
2009,08,11,13,20,19.30
2009,08,11,13,21,19.40
2009,08,11,13,22,19.50
2009,08,11,13,23,19.60
2009,08,11,13,24,19.60
2009,08,11,13,25,19.70
2009,08,11,13,26,19.70
2009,08,11,13,27,19.60
2009,08,11,13,28,19.50
2009,08,11,13,29,19.40
2009,08,11,13,30,19.40
2009,08,11,13,31,19.40
2009,08,11,13,32,19.30
2009,08,11,13,33,19.30
2009,08,11,13,34,19.20
2009,08,11,13,35,19.10
2009,08,11,13,36,19.10
2009,08,11,13,37,19.10
2009,08,11,13,38,19.10
2009,08,11,13,39,19.10
2009,08,11,13,40,19.20
2009,08,11,13,41,19.20
2009,08,11,13,42,19.30
2009,08,11,13,43,19.40
2009,08,11,13,44,19.40
2009,08,11,13,45,19.50
2009,08,11,13,46,19.60
2009,08,11,13,47,19.80
2009,08,11,13,48,19.90
2009,08,11,13,49,20.00
2009,08,11,13,50,19.90
2009,08,11,13,51,19.90
2009,08,11,13,52,19.90
2009,08,11,13,53,19.90
2009,08,11,13,54,19.90
2009,08,11,13,55,20.00
2009,08,11,13,56,20.00
2009,08,11,13,57,20.00
2009,08,11,13,58,19.90
2009,08,11,13,59,19.90
2009,08,11,14,00,19.80
2009,08,11,14,01,19.70
2009,08,11,14,02,19.70
2009,08,11,14,03,19.80
2009,08,11,14,04,19.90
2009,08,11,14,05,19.90
2009,08,11,14,06,20.00
2009,08,11,14,07,20.00
2009,08,11,14,08,19.90
2009,08,11,14,09,19.80
2009,08,11,14,10,19.70
2009,08,11,14,11,19.60
2009,08,11,14,12,19.50
2009,08,11,14,13,19.50
2009,08,11,14,14,19.50
2009,08,11,14,15,19.50
2009,08,11,14,16,19.50
2009,08,11,14,17,19.60
2009,08,11,14,18,19.60
2009,08,11,14,19,19.60
2009,08,11,14,20,19.70
2009,08,11,14,21,19.60
2009,08,11,14,22,19.70
2009,08,11,14,23,19.60
2009,08,11,14,24,19.50
2009,08,11,14,25,19.40
2009,08,11,14,26,19.30
2009,08,11,14,27,19.20
2009,08,11,14,28,19.10
2009,08,11,14,29,19.10
2009,08,11,14,30,19.10
2009,08,11,14,31,19.10
2009,08,11,14,32,19.10
2009,08,11,14,33,19.10
2009,08,11,14,34,19.20
2009,08,11,14,35,19.20
2009,08,11,14,36,19.20
2009,08,11,14,37,19.30
2009,08,11,14,38,19.30
2009,08,11,14,39,19.40
2009,08,11,14,40,19.60
2009,08,11,14,41,19.70
2009,08,11,14,42,19.70
2009,08,11,14,43,19.80
2009,08,11,14,44,19.70
2009,08,11,14,45,19.70
2009,08,11,14,46,19.80
2009,08,11,14,47,19.80
2009,08,11,14,48,19.80
2009,08,11,14,49,19.70
2009,08,11,14,50,19.70
2009,08,11,14,51,19.60
2009,08,11,14,52,19.60
2009,08,11,14,53,19.60
2009,08,11,14,54,19.60
2009,08,11,14,55,19.60
2009,08,11,14,56,19.60
2009,08,11,14,57,19.50
2009,08,11,14,58,19.40
2009,08,11,14,59,19.30
2009,08,11,15,00,19.30
2009,08,11,15,01,19.20
2009,08,11,15,02,19.10
2009,08,11,15,03,19.00
2009,08,11,15,04,19.00
2009,08,11,15,05,19.00
2009,08,11,15,06,19.00
2009,08,11,15,07,19.00
2009,08,11,15,08,19.00
2009,08,11,15,09,19.10
2009,08,11,15,10,19.10
2009,08,11,15,11,19.10
2009,08,11,15,12,19.10
2009,08,11,15,13,19.10
2009,08,11,15,14,19.00
2009,08,11,15,15,19.00
2009,08,11,15,16,18.90
2009,08,11,15,17,18.90
2009,08,11,15,18,18.90
2009,08,11,15,19,18.90
2009,08,11,15,20,18.90
2009,08,11,15,21,19.00
2009,08,11,15,22,19.00
2009,08,11,15,23,19.10
2009,08,11,15,24,19.10
2009,08,11,15,25,19.20
2009,08,11,15,26,19.20
2009,08,11,15,27,19.30
2009,08,11,15,28,19.40
2009,08,11,15,29,19.40
2009,08,11,15,30,19.50
2009,08,11,15,31,19.50
2009,08,11,15,32,19.60
2009,08,11,15,33,19.60
2009,08,11,15,34,19.60
2009,08,11,15,35,19.60
2009,08,11,15,36,19.60
2009,08,11,15,37,19.60
2009,08,11,15,38,19.50
2009,08,11,15,39,19.50
2009,08,11,15,40,19.40
2009,08,11,15,41,19.30
2009,08,11,15,42,19.20
2009,08,11,15,43,19.20
2009,08,11,15,44,19.20
2009,08,11,15,45,19.20
2009,08,11,15,46,19.20
2009,08,11,15,47,19.20
2009,08,11,15,48,19.20
2009,08,11,15,49,19.20
2009,08,11,15,50,19.20
2009,08,11,15,51,19.30
2009,08,11,15,52,19.30
2009,08,11,15,53,19.30
2009,08,11,15,54,19.40
2009,08,11,15,55,19.40
2009,08,11,15,56,19.50
2009,08,11,15,57,19.50
2009,08,11,15,58,19.50
2009,08,11,15,59,19.60
2009,08,11,16,00,19.60
2009,08,11,16,01,19.60
2009,08,11,16,02,19.70
2009,08,11,16,03,19.80
2009,08,11,16,04,19.80
2009,08,11,16,05,19.90
2009,08,11,16,06,20.00
2009,08,11,16,07,20.10
2009,08,11,16,08,20.20
2009,08,11,16,09,20.20
2009,08,11,16,10,20.30
2009,08,11,16,11,20.30
2009,08,11,16,12,20.30
2009,08,11,16,13,20.20
2009,08,11,16,14,20.20
2009,08,11,16,15,20.10
2009,08,11,16,16,20.10
2009,08,11,16,17,20.20
2009,08,11,16,18,20.20
2009,08,11,16,19,20.30
2009,08,11,16,20,20.30
2009,08,11,16,21,20.30
2009,08,11,16,22,20.30
2009,08,11,16,23,20.30
2009,08,11,16,24,20.30
2009,08,11,16,25,20.30
2009,08,11,16,26,20.40
2009,08,11,16,27,20.40
2009,08,11,16,28,20.40
2009,08,11,16,29,20.40
2009,08,11,16,30,20.40
2009,08,11,16,31,20.40
2009,08,11,16,32,20.30
2009,08,11,16,33,20.30
2009,08,11,16,34,20.30
2009,08,11,16,35,20.20
2009,08,11,16,36,20.30
2009,08,11,16,37,20.30
2009,08,11,16,38,20.20
2009,08,11,16,39,20.20
2009,08,11,16,40,20.20
2009,08,11,16,41,20.20
2009,08,11,16,42,20.20
2009,08,11,16,43,20.20
2009,08,11,16,44,20.20
2009,08,11,16,45,20.20
2009,08,11,16,46,20.20
2009,08,11,16,47,20.10
2009,08,11,16,48,20.10
2009,08,11,16,49,20.10
2009,08,11,16,50,20.10
2009,08,11,16,51,20.10
2009,08,11,16,52,20.10
2009,08,11,16,53,20.10
2009,08,11,16,54,20.10
2009,08,11,16,55,20.10
2009,08,11,16,56,20.20
2009,08,11,16,57,20.20
2009,08,11,16,58,20.20
2009,08,11,16,59,20.20
2009,08,11,17,00,20.20
2009,08,11,17,01,20.20
2009,08,11,17,02,20.20
2009,08,11,17,03,20.20
2009,08,11,17,04,20.20
2009,08,11,17,05,20.20
2009,08,11,17,06,20.10
2009,08,11,17,07,20.10
2009,08,11,17,08,20.20
2009,08,11,17,09,20.20
2009,08,11,17,10,20.20
2009,08,11,17,11,20.20
2009,08,11,17,12,20.20
2009,08,11,17,13,20.20
2009,08,11,17,14,20.20
2009,08,11,17,15,20.20
2009,08,11,17,16,20.20
2009,08,11,17,17,20.10
2009,08,11,17,18,20.10
2009,08,11,17,19,20.00